CZ-6A R/B, 61570

Orbit data source: Space-Track

CZ-6A R/B, 61570 is space debris in LEO originally from a launch on Tue, 15 Oct 2024 UTC launched from the Taiyaun Space Center, China (TSC). Debris objects in space refer to the collection of defunct objects orbiting the Earth. Examples of debris include non-operational satellites, rocket bodies, and fragments generated from explosions, collisions, or faulty payload assembly.

Loading next visibility...
Identifier
61570, 2024-185U
Orbit
LEO
Country
Flag of CNCN / PRC
Related business
Manufacturer
SAST
Mission
Spacecraft
Bus & Motor
CZ-6A STAGE 2, YF-115
Mass
~6,000 kg wet, ~6,000 kg dry
Launch date (UTC)
2024-10-15 (2 years ago)
Launch vehicle
Unknown
Launch site
Taiyaun Space Center, China (TSC)
Object type
Payload
Rocket body
Debris
Shape & HBR
CYL, 5.5 m
Radar Cross Section
Large (>1 m²)

Expand to show TLE details & history
Last TLE update: 15 hours ago

TLE from 15 hours ago
0 CZ-6A R/B
1 61570U 24185U   26235.54598262  .00000272  00000-0  59680-4 0  9991
2 61570  89.0206  47.2130 0096883 326.8210  32.6945 14.51818069 97434
Epoch: 2026-08-23T13:06Z
TLE epoch observation values (Epoch: 2026-08-23T13:06:12.898Z)
Latitude
0.00005°
Longitude
-121.18123°
Altitude
665.129 km
Speed
7.555 km/s
True Right ascension
03h 08m 51s
True Declination
0° 00' 00"
Sunlit
Object was in daylight at epoch
Visualization orbit readout
Latitude
Unknown
Longitude
Unknown
Altitude
Unknown
Speed
Unknown
Apparent Right ascension
Unknown
Apparent Declination
Unknown
Sunlit
N/A
Visualization observer readout
Local Sidereal Time
19:00:24
Azimuth
Unknown
Elevation
Unknown
Doppler factor
Unknown
Orbital elements
Apogee altitude
785.358 km
Perigee altitude
647.886 km
Semi-major axis
7,094.759 km
Eccentricity
0.00969
Inclination
89.0206°
RAAN
47.213°
Arg. of periapsis
326.821°
True anomaly
33.30034°
Mean anomaly
32.6945°
Eccentric anomaly
32.9968°
Mean motion
3.63192 °/min
Orbital period
99.12 mins
BSTAR
0.00005968
Loading maneuver chart data...
Computing Atmospheric mass density...
Loading historical data...
Loading historical data...
Loading historical data...
Loading historical data...
Loading historical data...
Loading historical data...
Loading historical data...

Documentation

Showing up to 5 results
|